This is the latest recevied weather packets stored in our database for station/object FW7644. If no packets are shown the sender has not sent any weather packets the latest 10 day(s).
| Time | Temp. | Humidity | Pressure | Rain* | Wind** | Luminosity | Snow |
|---|---|---|---|---|---|---|---|
| 1777501258 | 14.44° C | 99% | 1018.3 hPa | 4.06 mm | - | - | - |
| 1777500957 | 14.44° C | 99% | 1018.4 hPa | 4.32 mm | - | - | - |
| 1777500655 | 14.44° C | 99% | 1018.2 hPa | 4.32 mm | - | - | - |
| 1777500353 | 14.44° C | 99% | 1018.3 hPa | 4.57 mm | - | - | - |
| 1777500052 | 14.44° C | 99% | 1018 hPa | 4.32 mm | - | - | - |
| 1777499750 | 14.44° C | 99% | 1017.8 hPa | 4.57 mm | - | - | - |
| 1777499449 | 15° C | 99% | 1018.1 hPa | 4.32 mm | - | - | - |
| 1777499147 | 15° C | 99% | 1018.4 hPa | 5.33 mm | - | - | - |
| 1777498845 | 14.44° C | 99% | 1018.4 hPa | 4.83 mm | - | - | - |
| 1777498543 | 15° C | 99% | 1018.4 hPa | 4.83 mm | - | - | - |
| 1777498241 | 15° C | 99% | 1018.4 hPa | 4.32 mm | - | - | - |
| 1777497940 | 14.44° C | 99% | 1018.1 hPa | 4.57 mm | - | - | - |
| 1777497638 | 14.44° C | 99% | 1017.7 hPa | 4.06 mm | - | - | - |
| 1777497337 | 14.44° C | 99% | 1017.3 hPa | 4.32 mm | - | - | - |
| 1777497035 | 14.44° C | 99% | 1016.7 hPa | 4.06 mm | - | - | - |
| 1777496733 | 14.44° C | 99% | 1016.8 hPa | 4.83 mm | - | - | - |
| 1777496432 | 14.44° C | 99% | 1017.1 hPa | 4.57 mm | - | - | - |
| 1777496130 | 14.44° C | 99% | 1017.4 hPa | 4.83 mm | - | - | - |
| 1777495828 | 14.44° C | 99% | 1017.5 hPa | 4.32 mm | - | - | - |
| 1777495527 | 14.44° C | 99% | 1017.2 hPa | 3.56 mm | - | - | - |
| 1777495225 | 14.44° C | 99% | 1017.1 hPa | 2.79 mm | - | - | - |
| 1777494924 | 14.44° C | 99% | 1017 hPa | 2.79 mm | - | - | - |
| 1777494622 | 15° C | 99% | 1016.7 hPa | 2.54 mm | - | - | - |
| 1777494320 | 15° C | 99% | 1016.9 hPa | 2.03 mm | - | - | - |
| 1777494019 | 15° C | 99% | 1016.8 hPa | 2.03 mm | - | - | - |
* Rain latest hour (hover to see other rain measurements)
** Current wind speed in m/s (hover to see current wind gust speed)